www.pogodaiklimat.ru

Погода и климат >> Архив погоды >> Мозамбик >> Beira


ПОГОДА в Beira

  • Прогноз погоды в Beira
  • Монитор погоды в Beira
  • Климат города

АРХИВ ПОГОДЫ в Beira

Время (UTC), дата Ветер
(напр.,м/с)
 
Видим.   Явления Облачность Т
(С)
Тd
(С)
f
(%)
Тe
(С)
Тes
(С)
Комфортность P
(гПа)
Po
(гПа)
Тmin
(С)
Tmax
(С)
R
(мм)
R24
(мм)
S
(см)
00 20.06 З 2 15 км 1/1 600 м
[Cu med, cong]
+20.8 +19.5 92 +26 +26 душно 1019.3 1019.0
03 20.06 СВ 4 15 км 1/1 600 м
[Cu med, cong]
+18.8 +17.5 92 +20 +20 1020.0 1020.0
06 20.06 С 3 15 км 9/3 300 м
[Cu med, cong Ac trans]
+19.6 +17.4 87 +22 +23 комфорт 1021.5 1022.0 +18.4
09 20.06 СЗ 3 20 км 5/1 600 м
[Cu med, cong Ac trans]
+21.8 +17.7 78 +26 +33 душно 1021.1 1021.0
12 20.06 Ю 2 20 км 4/3 600 м
[Cu med, cong Ac trans]
+24.6 +17.9 66 +29 +33 душно 1020.7 1021.0
15 20.06 В 2 20 км 3/1 600 м
[Cu Sc Ac trans]
+24.4 +18.2 68 +29 +29 душно 1020.4 1020.0
18 20.06 штиль 0 20 км 3/3 600 м
[Cu Sc]
+21.6 +19.2 86 +27 +27 душно 1021.8 1022.0 +25.2
21 20.06 ЮЗ 1 5000 м дымка 1/1 600 м
[Cu med, cong]
+19.2 +17.5 90 +22 +22 комфорт 1019.8 1020.0
00 21.06 Ю 2 15 км 3/3 600 м
[Cu med, cong]
+18.4 +17.7 96 +20 +20 1019.2 1019.0
03 21.06 З 3 15 км 1/1 600 м
[Cu med, cong]
+17.1 +16.8 98 +17 +17 1019.4 1019.0
06 21.06 ЮЗ 3 20 км 1/1 600 м
[Cu Sc]
+18.0 +16.4 90 +18 +21 1021.0 1021.0 +16.5
09 21.06 ЮЗ 4 30 км 5/1 600 м
[Cu med, cong Ac cuf]
+23.8 +18.1 70 +28 +33 душно 1020.9 1021.0
12 21.06 Ю 3 30 км 9/4 600 м
[Cu med, cong Ac trans]
+24.6 +16.4 60 +28 +30 душно 1020.6 1021.0
15 21.06 ЮЗ 4 30 км 8/3 600 м
[Cu med, cong Ac trans]
+24.0 +18.3 70 +28 +28 душно 1020.4 1020.0
18 21.06 ЮЗ 3 25 км 6/3 600 м
[Cu med, cong Ac trans]
+22.6 +18.7 79 +28 +28 душно 1021.2 1021.0 +25.5
21 21.06 Ю 2 15 км 4/1 600 м
[Cu med, cong Ac trans]
+21.8 +19.1 85 +27 +27 душно 1019.3 1019.0
03 22.06 ЮЗ 3 15 км 6/6 300 м
[Cu Sc]
+18.6 +17.6 94 +20 +20 1018.9 1019.0
06 22.06 ЮЗ 3 15 км 4/3 300 м
[Cu med, cong Ac trans]
+19.2 +17.4 89 +21 +23 комфорт 1020.3 1020.0 +18.5
09 22.06 ЮЗ 3 20 км 4/3 300 м
[Cu Sc Ac trans]
+24.4 +16.2 60 +28 +34 душно 1020.5 1021.0
15 22.06 З 2 15 км 6/3 300 м
[Cu med, cong Ac trans]
+24.4 +16.4 61 +28 +28 душно 1017.5 1018.0
18 22.06 Ю 1 15 км 6/3 300 м
[Cu med, cong Ac trans]
+22.0 +16.0 69 +26 +26 душно 1018.2 1018.0 +26.6
21 22.06 нст 2 15 км 4/1 300 м
[Cu med, cong Ac trans]
+19.8 +17.0 84 +23 +23 комфорт 1018.5 1019.0
00 23.06 штиль 0 15 км 3/3 300 м
[Cu med, cong]
+17.8 +17.5 98 +18 +18 1017.6 1018.0
03 23.06 СЗ 3 15 км 5/3 300 м
[Cu med, cong Ac trans]
+18.0 +14.9 82 +18 +18 1018.1 1018.0
06 23.06 Ю 2 15 км 3/3 300 м
[Sc diur, vesp Ac trans]
+28.4 +14.7 43 +31 +33 душно 1022.0 1022.0 +16.5
09 23.06 С 3 15 км 3/3 600 м
[Cu Sc]
+27.4 +14.0 44 +30 +37 жарко 1021.8 1022.0
12 23.06 ЮЗ 4 20 км ясно +28.2 +17.2 51 +32 +38 душно 1020.3 1020.0
15 23.06 Ю 3 20 км ясно +24.8 +24.8 100 +35 +35 очень
душно
1020.7 1021.0
09 25.06 Ю 4 25 км 5/5 300 м
[Cu Sc]
+24.7 +20.6 78 +31 +34 очень
душно
1022.9 1023.0
12 25.06 Ю 4 8000 м слабая морось 9/9 300 м
[Cu Sc]
+24.3 +20.9 81 +30 +31 очень
душно
1021.0 1021.0
15 25.06 ЮВ 4 15 км 6/4 300 м
[Cu Sc Ac trans]
+22.2 +19.1 83 +28 +28 душно 1021.1 1021.0
18 25.06 ЮВ 3 15 км 4/4 300 м
[Cu Sc]
+21.9 +19.1 84 +27 +27 душно 1022.0 1022.0 +25.2 2
21 25.06 СВ 4 15 км 3/3 600 м
[Cu Sc]
+22.0 +18.9 83 +27 +27 душно 1022.6 1023.0
00 26.06 СВ 3 20 км 3/3 600 м
[Cu med, cong]
+22.3 +17.6 75 +27 +27 душно 1022.0 1022.0
03 26.06 ЮЗ 2 20 км 3/3 600 м
[Cu Sc]
+21.8 +16.4 71 +26 +26 душно 1022.4 1022.0
06 26.06 ЮЗ 3 25 км 1/1 300 м
[Cu Sc]
+21.6 +17.6 78 +26 +28 душно 1024.0 1024.0 +19.2 3
09 26.06 ЮЗ 5 25 км 1/1 300 м
[Cu med, cong]
+24.5 +16.3 60 +28 +34 душно 1024.7 1025.0
12 26.06 Ю 5 25 км 6/4 300 м
[Cu Sc Ac As]
+25.3 +17.3 61 +29 +31 душно 1022.8 1023.0
15 26.06 С 1 15 км в посл. час морось 9/5 300 м
[Cu Sc Ac As]
+22.6 +18.7 79 +28 +28 душно 1022.7 1023.0

 

Местоположение метеостанции Beira (Мозамбик): широта -19.80 долгота 34.90 высота над уровнем моря 16 м.

В архиве по умолчанию представлена погода в Beira за последнюю неделю. Архивные данные за месяц целиком и за предыдущие месяцы, начиная с января 2011 года, Вы можете получить, выбрав интересующий диапазон дат из раскрывающегося списка и нажав кнопку "Ввод!".

Внимание! Время в таблицах - всемирное. Для получения местного времени необходимо прибавить поправку, которая в Beira равна 2 ч.

Смотрите также архив погоды в соседних городах и на ближайших метеорологических станциях:

Погода в Chimoio (Мозамбик) (168 км)
Погода в Caia (Мозамбик) (224 км)
Погода в Chipinge (Зимбабве) (243 км)
Погода в Mukandi (Зимбабве) (246 км)
Погода в Vilanculos (Мозамбик) (249 км)
Погода в Catandica (Мозамбик) (265 км)
Погода в Massangena (Мозамбик) (280 км)
Погода в Wyanga (Зимбабве) (282 км)
Погода в Quelimane (Мозамбик) (298 км)
Погода в Rusape (Зимбабве) (323 км)

Пояснения к столбцам:

Ветер - указаны скорость ветра в м/с - средняя за 10 мин, порывы в срок и между сроками (в фигурных скобках) и направление, откуда дует ветер: С - северный, СВ - северо-восточный, В - восточный, ЮВ - юго-восточный, Ю - южный, ЮЗ - юго-западный, З - западный, СЗ - северо-западный.
Видимость - горизонтальная дальность видимости в метрах или километрах. При видимости от 1 до 10 км при отсутствии осадков обычно наблюдается дымка, при ухудшении видимости до 1 км и менее - туман. В сухую погоду видимость может ухудшаться дымом, пылью или мглою.
Явления - указаны атмосферные явления, наблюдавшиеся в срок или в последний час перед сроком; фигурными скобками обозначены явления, наблюдавшиеся между сроками (за 1-3 часа до срока); квадратными скобками обозначены град или гололедные отложения с указанием их диаметра в мм.
Облачность - указаны через наклонную черту общая и нижняя облачность в баллах и высота нижней границы облаков в метрах; квадратными скобками обозначены формы облаков: Ci - перистые, Cs - перисто-слоистые, Cc - перисто-кучевые, Ac - высококучевые, As - высокослоистые, Sc - слоисто-кучевые, Ns - слоисто-дождевые, Cu - кучевые, Cb - кучево-дождевые. Подробнее классификацию облаков см. в Атласе облаков (PDF).
T - Температура воздуха - температура, измеренная на высоте 2 м над землей.
Td - Температура точки росы - температура, при понижении до которой содержащийся в воздухе водяной пар достигнет насыщения.
f - Относительная влажность воздуха - влажноcть воздуха, измеренная на высоте 2 м над землей.
Te - Эффективная температура - температура, которую ощущает одетый по сезону человек в тени. Характеристика душности погоды. При расчете учитывается влияние влажности воздуха и скорости ветра на теплоощущения человека.
Tes - Эффективная температура на солнце - температура, которую ощущает человек, с поправкой на солнечный нагрев. Характеристика знойности погоды. Зависит от высоты солнца над горизонтом, облачности и скорости ветра. Ночью, в пасмурную погоду, а также при ветре 12 м/с и более поправка равна нулю.
P - Атмосферное давление - приведенное к уровню моря атмосферное давление.
Po - Атмосферное давление - измеренное на уровне метеостанции атмосферное давление.
Tmin - Минимальная температура - минимум температуры воздуха на высоте 2 м над землей.
Tmax - Максимальная температура - максимум температуры воздуха на высоте 2 м над землей.
R - Количество осадков - Количество выпавших осадков за период времени, мм. При наведении курсора мыши на число - период времени, за который выпало указанное количество осадков.
R24 - Количество осадков - Количество выпавших осадков за 24 часа, мм.
S - Снежный покров - Высота снежного покрова, см. При наведении курсора мыши на число - состояние снежного покрова и степень покрытия местности в баллах.